CDN1460 CYUL-LFRS

Flight info

Callsign CDN1460
Flight time N/A
Altitude 37000
Route CYUL5 VIKBU DCT ATENE Q907 MIILS N285B NICSO/M083F370 DCT 4850N DCT 4940N DCT 5030N DCT 5120N DCT DINIM DCT ELSOX DCT RATKA/N0477F370 DCT ADRUD DCT MATER DCT ERBIN
Aircraft B77L/H-SDE1E2E3FGHIJ2J3J4J5M1RWXY/LB1D1

Departure

Time N/A
Airport Montreal / Pierre Elliott Trudeau International Airport (CYUL)

Arrival

Time 2026-05-05 21:44
Airport Nantes Atlantique Airport (LFRS)
Time Latitude Longitude Altitude Speed Heading
2026-05-05 15:50 45.66264 -72.64566 25390 ft 523 kts 71°
2026-05-05 15:50 45.67532 -72.59667 25968 ft 527 kts 71°
2026-05-05 15:50 45.68805 -72.54739 26524 ft 531 kts 71°
2026-05-05 15:51 45.70090 -72.49753 27067 ft 535 kts 71°
2026-05-05 15:51 45.71362 -72.44806 27594 ft 538 kts 71°
2026-05-05 15:51 45.72665 -72.39729 28113 ft 542 kts 71°
2026-05-05 15:51 45.73966 -72.34644 28619 ft 545 kts 71°
2026-05-05 15:52 45.75276 -72.29519 29107 ft 548 kts 71°
2026-05-05 15:52 45.76589 -72.24366 29717 ft 548 kts 71°
2026-05-05 15:52 45.77874 -72.19316 30341 ft 545 kts 71°
2026-05-05 15:52 45.79168 -72.14217 30893 ft 544 kts 71°
2026-05-05 15:53 45.80460 -72.09117 31399 ft 545 kts 71°
2026-05-05 15:53 45.81753 -72.03999 31884 ft 545 kts 71°
2026-05-05 15:53 45.83029 -71.98880 32395 ft 544 kts 71°
2026-05-05 15:53 45.84287 -71.93751 32912 ft 544 kts 71°
2026-05-05 15:54 45.85531 -71.88635 33408 ft 543 kts 71°
2026-05-05 15:54 45.86769 -71.83517 33897 ft 542 kts 71°
2026-05-05 15:54 45.88003 -71.78413 34354 ft 540 kts 71°
2026-05-05 15:54 45.89236 -71.73314 34798 ft 539 kts 71°
2026-05-05 15:55 45.90462 -71.68240 35225 ft 538 kts 71°
2026-05-05 15:55 45.91669 -71.63238 35673 ft 536 kts 71°
2026-05-05 15:55 45.92886 -71.58191 36108 ft 534 kts 72°
2026-05-05 15:55 45.94100 -71.53142 36503 ft 533 kts 72°
2026-05-05 15:56 45.95307 -71.48113 36756 ft 534 kts 72°
2026-05-05 15:56 45.97732 -71.37965 36705 ft 535 kts 72°
2026-05-05 15:57 46.00129 -71.27889 36694 ft 531 kts 72°
2026-05-05 15:57 46.02507 -71.17847 36700 ft 529 kts 72°
2026-05-05 15:58 46.04857 -71.07877 36703 ft 528 kts 72°
2026-05-05 15:58 46.07211 -70.97845 36699 ft 529 kts 72°
2026-05-05 15:59 46.09556 -70.87803 36703 ft 529 kts 72°
2026-05-05 15:59 46.11901 -70.77720 36702 ft 531 kts 72°
2026-05-05 16:00 46.14239 -70.67615 36705 ft 532 kts 72°
2026-05-05 16:00 46.16575 -70.57474 36703 ft 533 kts 72°
2026-05-05 16:01 46.18904 -70.47316 36698 ft 533 kts 72°
2026-05-05 16:01 46.21210 -70.37209 36697 ft 533 kts 72°
2026-05-05 16:02 46.23527 -70.27015 36678 ft 533 kts 72°
2026-05-05 16:02 46.25769 -70.16812 36679 ft 531 kts 73°
2026-05-05 16:03 46.27902 -70.06693 36701 ft 528 kts 73°
2026-05-05 16:03 46.30033 -69.96540 36677 ft 527 kts 73°
2026-05-05 16:04 46.32165 -69.86398 36693 ft 526 kts 73°
2026-05-05 16:04 46.34293 -69.76257 36677 ft 527 kts 73°
2026-05-05 16:05 46.36416 -69.66096 36688 ft 527 kts 73°
2026-05-05 16:05 46.38528 -69.55925 36684 ft 527 kts 73°
2026-05-05 16:06 46.40637 -69.45723 36696 ft 528 kts 73°
2026-05-05 16:06 46.42722 -69.35580 36694 ft 528 kts 73°
2026-05-05 16:07 46.44814 -69.25352 36698 ft 529 kts 73°
2026-05-05 16:07 46.46895 -69.15124 36694 ft 529 kts 73°
2026-05-05 16:08 46.48968 -69.04881 36705 ft 529 kts 73°
2026-05-05 16:08 46.51030 -68.94645 36682 ft 528 kts 73°
2026-05-05 16:09 46.53080 -68.84413 36717 ft 527 kts 73°
2026-05-05 16:09 46.55107 -68.74244 36702 ft 526 kts 73°
2026-05-05 16:10 46.57130 -68.64039 36709 ft 525 kts 73°
2026-05-05 16:10 46.59146 -68.53820 36707 ft 525 kts 73°
2026-05-05 16:11 46.61150 -68.43606 36722 ft 525 kts 73°
2026-05-05 16:12 46.64796 -68.24882 36709 ft 525 kts 73°
2026-05-05 16:13 46.69729 -67.99255 36702 ft 526 kts 74°
2026-05-05 16:13 46.71688 -67.88984 36701 ft 526 kts 74°
2026-05-05 16:14 46.75577 -67.68458 36714 ft 527 kts 74°
2026-05-05 16:15 46.79449 -67.47855 36736 ft 526 kts 74°
2026-05-05 16:16 46.83279 -67.27241 36733 ft 525 kts 74°
2026-05-05 16:17 46.86111 -67.11857 36735 ft 524 kts 74°
2026-05-05 16:18 46.88429 -66.96284 36743 ft 522 kts 81°
2026-05-05 16:19 46.90037 -66.80517 36739 ft 521 kts 81°
2026-05-05 16:19 46.91651 -66.64861 36741 ft 520 kts 81°
2026-05-05 16:20 46.93827 -66.43961 36743 ft 519 kts 81°
2026-05-05 16:22 46.96476 -66.17942 36755 ft 518 kts 81°
2026-05-05 16:23 46.98559 -65.97036 36759 ft 518 kts 81°
2026-05-05 16:23 47.00089 -65.81415 36758 ft 518 kts 81°
2026-05-05 16:24 47.01102 -65.70949 36757 ft 518 kts 82°
2026-05-05 16:25 47.02597 -65.55302 36773 ft 518 kts 82°
2026-05-05 16:25 47.04079 -65.39571 36760 ft 519 kts 82°
2026-05-05 16:26 47.06017 -65.18615 36761 ft 518 kts 82°
2026-05-05 16:27 47.06975 -65.08104 36772 ft 518 kts 82°
2026-05-05 16:27 47.07914 -64.97689 36761 ft 518 kts 82°
2026-05-05 16:28 47.08849 -64.87212 36772 ft 518 kts 82°
2026-05-05 16:28 47.09775 -64.76724 36766 ft 518 kts 82°
2026-05-05 16:29 47.10691 -64.66235 36778 ft 517 kts 82°
2026-05-05 16:29 47.11596 -64.55758 36777 ft 517 kts 82°
2026-05-05 16:30 47.12491 -64.45285 36784 ft 517 kts 82°
2026-05-05 16:30 47.13370 -64.34873 36788 ft 516 kts 82°
2026-05-05 16:31 47.14245 -64.24410 36797 ft 516 kts 82°
2026-05-05 16:31 47.15111 -64.13929 36788 ft 516 kts 83°
2026-05-05 16:32 47.15967 -64.03451 36798 ft 516 kts 83°
2026-05-05 16:32 47.16812 -63.92987 36798 ft 516 kts 83°
2026-05-05 16:33 47.17648 -63.82512 36799 ft 516 kts 83°
2026-05-05 16:33 47.18470 -63.72087 36798 ft 516 kts 83°
2026-05-05 16:34 47.19288 -63.61601 36809 ft 516 kts 83°
2026-05-05 16:34 47.20097 -63.51090 36809 ft 517 kts 83°
2026-05-05 16:35 47.20896 -63.40587 36825 ft 517 kts 83°
2026-05-05 16:35 47.21686 -63.30071 36820 ft 517 kts 83°
2026-05-05 16:36 47.22469 -63.19527 36829 ft 518 kts 83°
2026-05-05 16:36 47.23241 -63.08989 36832 ft 518 kts 83°
2026-05-05 16:37 47.24000 -62.98499 36845 ft 518 kts 84°
2026-05-05 16:37 47.24753 -62.87952 36843 ft 518 kts 84°
2026-05-05 16:38 47.25497 -62.77383 36851 ft 518 kts 84°
2026-05-05 16:38 47.26232 -62.66819 36849 ft 518 kts 84°
2026-05-05 16:39 47.26958 -62.56227 36859 ft 518 kts 84°
2026-05-05 16:39 47.27669 -62.45715 36854 ft 519 kts 84°
2026-05-05 16:40 47.28374 -62.35138 36870 ft 519 kts 84°
2026-05-05 16:40 47.29070 -62.24555 36862 ft 519 kts 84°
2026-05-05 16:41 47.29757 -62.13970 36871 ft 519 kts 84°
2026-05-05 16:41 47.30429 -62.03448 36867 ft 519 kts 84°
2026-05-05 16:42 47.31097 -61.92843 36865 ft 519 kts 85°
2026-05-05 16:42 47.31754 -61.82250 36858 ft 519 kts 85°
2026-05-05 16:43 47.32402 -61.71643 36861 ft 519 kts 85°
2026-05-05 16:43 47.33039 -61.61051 36867 ft 519 kts 85°
2026-05-05 16:44 47.33667 -61.50447 36875 ft 519 kts 85°
2026-05-05 16:44 47.34282 -61.39882 36879 ft 519 kts 85°
2026-05-05 16:45 47.34892 -61.29252 36893 ft 520 kts 85°
2026-05-05 16:45 47.35491 -61.18626 36891 ft 520 kts 85°
2026-05-05 16:46 47.36078 -61.08044 36904 ft 521 kts 85°
2026-05-05 16:46 47.36659 -60.97385 36902 ft 521 kts 86°
2026-05-05 16:47 47.37231 -60.86724 36911 ft 521 kts 86°
2026-05-05 16:47 47.37793 -60.76042 36910 ft 521 kts 86°
2026-05-05 16:48 47.38342 -60.65429 36914 ft 522 kts 86°
2026-05-05 16:48 47.38885 -60.54735 36917 ft 522 kts 86°
2026-05-05 16:49 47.39418 -60.44052 36921 ft 522 kts 86°
2026-05-05 16:49 47.39941 -60.33352 36924 ft 521 kts 86°
2026-05-05 16:50 47.40453 -60.22683 36929 ft 521 kts 87°
2026-05-05 16:50 47.40955 -60.12010 36930 ft 521 kts 87°
2026-05-05 16:51 47.41444 -60.01386 36940 ft 521 kts 87°
2026-05-05 16:51 47.41926 -59.90699 36938 ft 522 kts 87°
2026-05-05 16:52 47.42400 -59.80000 36942 ft 522 kts 87°
2026-05-05 16:52 47.42864 -59.69281 36942 ft 522 kts 88°
2026-05-05 16:53 47.43241 -59.60383 36951 ft 522 kts 88°
2026-05-05 16:53 47.43687 -59.49670 36952 ft 522 kts 88°
2026-05-05 16:54 47.44121 -59.38965 36960 ft 522 kts 88°
2026-05-05 16:54 47.44547 -59.28259 36958 ft 522 kts 88°
2026-05-05 16:55 47.44962 -59.17556 36969 ft 522 kts 88°
2026-05-05 16:55 47.45366 -59.06843 36967 ft 522 kts 88°
2026-05-05 16:56 47.45759 -58.96191 36976 ft 522 kts 89°
2026-05-05 16:56 47.46146 -58.85418 37014 ft 522 kts 89°
2026-05-05 16:57 47.46335 -58.80058 37291 ft 522 kts 89°
2026-05-05 16:57 47.46522 -58.74711 37698 ft 520 kts 89°
2026-05-05 16:57 47.46702 -58.69453 38122 ft 517 kts 89°
2026-05-05 16:57 47.46882 -58.64158 38571 ft 514 kts 89°
2026-05-05 16:58 47.47058 -58.58904 38877 ft 510 kts 90°
2026-05-05 16:58 47.47230 -58.53744 38980 ft 499 kts 90°
2026-05-05 16:58 47.47559 -58.43504 38980 ft 500 kts 90°
2026-05-05 16:59 47.47879 -58.33149 38994 ft 508 kts 90°
2026-05-05 16:59 47.48195 -58.22756 38981 ft 507 kts 90°
2026-05-05 17:00 47.48504 -58.12373 38986 ft 504 kts 91°
2026-05-05 17:00 47.48802 -58.01960 38992 ft 508 kts 91°
2026-05-05 17:01 47.49090 -57.91581 38982 ft 503 kts 90°
2026-05-05 17:01 47.49367 -57.81222 38989 ft 505 kts 91°
2026-05-05 17:02 47.49634 -57.70880 38986 ft 505 kts 91°
2026-05-05 17:02 47.49895 -57.60499 39004 ft 505 kts 91°
2026-05-05 17:03 47.50146 -57.50109 38982 ft 504 kts 91°
2026-05-05 17:03 47.50388 -57.39770 39002 ft 503 kts 92°
2026-05-05 17:04 47.50618 -57.29362 38995 ft 508 kts 92°
2026-05-05 17:04 47.50842 -57.18949 38994 ft 506 kts 92°
2026-05-05 17:05 47.51055 -57.08521 38992 ft 507 kts 92°
2026-05-05 17:05 47.51259 -56.98121 38985 ft 506 kts 92°
2026-05-05 17:06 47.51452 -56.87792 38970 ft 503 kts 92°
2026-05-05 17:06 47.51636 -56.77434 38971 ft 506 kts 92°
2026-05-05 17:07 47.51812 -56.67032 38948 ft 504 kts 92°
2026-05-05 17:07 47.51978 -56.56627 38950 ft 508 kts 92°
2026-05-05 17:08 47.52134 -56.46294 38928 ft 499 kts 92°
2026-05-05 17:08 47.52278 -56.35973 38938 ft 505 kts 93°
2026-05-05 17:09 47.52416 -56.25586 38912 ft 502 kts 92°
2026-05-05 17:09 47.52546 -56.15218 38929 ft 507 kts 93°
2026-05-05 17:10 47.52665 -56.04810 38902 ft 503 kts 93°
2026-05-05 17:10 47.52775 -55.94472 38905 ft 507 kts 93°
2026-05-05 17:11 47.52873 -55.84016 38895 ft 506 kts 93°
2026-05-05 17:11 47.52964 -55.73584 38892 ft 506 kts 93°
2026-05-05 17:12 47.53047 -55.63228 38904 ft 507 kts 94°
2026-05-05 17:12 47.53120 -55.52798 38920 ft 507 kts 94°
2026-05-05 17:13 47.53182 -55.42350 38931 ft 507 kts 93°
2026-05-05 17:13 47.53237 -55.31910 38947 ft 507 kts 94°
2026-05-05 17:14 47.53282 -55.21476 38953 ft 504 kts 94°
2026-05-05 17:14 47.53315 -55.11142 38984 ft 508 kts 93°
2026-05-05 17:15 47.53337 -55.00672 38981 ft 508 kts 94°
2026-05-05 17:15 47.53355 -54.90220 39005 ft 509 kts 94°
2026-05-05 17:16 47.53362 -54.79757 38995 ft 508 kts 94°
2026-05-05 17:16 47.53359 -54.69296 39000 ft 507 kts 94°
2026-05-05 17:17 47.53347 -54.58938 38988 ft 507 kts 94°
2026-05-05 17:17 47.53323 -54.48481 38995 ft 509 kts 94°
2026-05-05 17:18 47.53291 -54.38001 38980 ft 508 kts 94°
2026-05-05 17:18 47.53251 -54.27542 38983 ft 509 kts 94°
2026-05-05 17:19 47.53200 -54.17078 38984 ft 508 kts 94°
2026-05-05 17:19 47.53139 -54.06616 38982 ft 508 kts 94°
2026-05-05 17:20 47.53070 -53.96201 38979 ft 510 kts 94°
2026-05-05 17:20 47.52990 -53.85704 38980 ft 510 kts 95°
2026-05-05 17:21 47.52901 -53.75213 38984 ft 510 kts 95°
2026-05-05 17:22 47.52749 -53.59414 38991 ft 513 kts 95°
2026-05-05 17:22 47.52632 -53.48789 38980 ft 519 kts 95°
2026-05-05 17:23 47.52506 -53.38062 38987 ft 522 kts 95°
2026-05-05 17:23 47.52372 -53.27309 38970 ft 523 kts 95°
2026-05-05 17:24 47.52225 -53.16610 38957 ft 524 kts 92°
2026-05-05 17:24 47.52070 -53.05801 38970 ft 526 kts 92°
2026-05-05 17:25 47.51904 -52.94958 38975 ft 528 kts 92°
2026-05-05 17:25 47.51725 -52.84051 38968 ft 530 kts 92°
2026-05-05 17:26 47.51536 -52.73204 38973 ft 531 kts 92°
2026-05-05 17:26 47.51336 -52.62271 38965 ft 531 kts 92°
2026-05-05 17:27 47.51126 -52.51350 38973 ft 530 kts 92°
2026-05-05 17:27 47.50906 -52.40445 38985 ft 529 kts 92°
2026-05-05 17:28 47.50676 -52.29563 38998 ft 528 kts 93°
2026-05-05 17:28 47.50437 -52.18713 39013 ft 527 kts 93°
2026-05-05 17:29 47.50214 -52.07955 39015 ft 526 kts 90°
2026-05-05 17:29 47.51052 -51.97200 39020 ft 526 kts 77°
2026-05-05 17:30 47.53236 -51.86876 39020 ft 524 kts 68°
2026-05-05 17:30 47.55917 -51.76828 39023 ft 524 kts 68°
2026-05-05 17:31 47.58573 -51.66840 39020 ft 525 kts 68°
2026-05-05 17:31 47.61191 -51.56742 39020 ft 525 kts 69°
2026-05-05 17:32 47.63781 -51.46598 39022 ft 526 kts 69°
2026-05-05 17:32 47.66369 -51.36416 39021 ft 526 kts 69°
2026-05-05 17:33 47.68935 -51.26286 39020 ft 526 kts 69°
2026-05-05 17:33 47.71509 -51.16090 39023 ft 527 kts 69°
2026-05-05 17:34 47.74073 -51.05887 39023 ft 527 kts 69°
2026-05-05 17:34 47.76200 -50.97390 39025 ft 527 kts 69°
2026-05-05 17:35 47.78749 -50.87161 39023 ft 528 kts 69°
2026-05-05 17:35 47.81291 -50.76914 39027 ft 528 kts 69°
2026-05-05 17:36 47.83826 -50.66646 39025 ft 528 kts 70°
2026-05-05 17:36 47.86354 -50.56360 39027 ft 529 kts 70°
2026-05-05 17:37 47.88860 -50.46120 39028 ft 529 kts 70°
2026-05-05 17:37 47.91375 -50.35793 39033 ft 529 kts 70°
2026-05-05 17:38 47.93878 -50.25468 39031 ft 530 kts 70°
2026-05-05 17:38 47.96376 -50.15112 39030 ft 530 kts 70°
2026-05-05 17:39 47.98850 -50.04815 39031 ft 530 kts 70°
2026-05-05 17:39 48.00958 -49.94247 39034 ft 530 kts 78°
2026-05-05 17:40 48.02497 -49.83459 39034 ft 530 kts 79°
2026-05-05 17:40 48.03971 -49.72725 39034 ft 531 kts 79°
2026-05-05 17:41 48.05484 -49.61915 39035 ft 531 kts 79°
2026-05-05 17:41 48.07016 -49.51103 39039 ft 531 kts 79°
2026-05-05 17:42 48.08548 -49.40268 39041 ft 532 kts 79°
2026-05-05 17:42 48.10061 -49.29472 39043 ft 532 kts 79°
2026-05-05 17:43 48.11571 -49.18596 39044 ft 532 kts 79°
2026-05-05 17:43 48.13066 -49.07743 39045 ft 532 kts 79°
2026-05-05 17:44 48.14553 -48.96869 39045 ft 533 kts 79°
2026-05-05 17:44 48.16020 -48.86067 39046 ft 533 kts 79°
2026-05-05 17:45 48.17487 -48.75181 39050 ft 533 kts 79°
2026-05-05 17:45 48.18942 -48.64300 39053 ft 533 kts 79°
2026-05-05 17:46 48.20391 -48.53379 39053 ft 533 kts 79°
2026-05-05 17:46 48.21828 -48.42467 39053 ft 533 kts 80°
2026-05-05 17:47 48.23244 -48.31627 39058 ft 533 kts 80°
2026-05-05 17:47 48.24663 -48.20686 39058 ft 533 kts 80°
2026-05-05 17:48 48.26068 -48.09755 39057 ft 533 kts 80°
2026-05-05 17:48 48.27463 -47.98824 39059 ft 533 kts 80°
2026-05-05 17:49 48.28845 -47.87913 39061 ft 534 kts 80°
2026-05-05 17:49 48.30221 -47.76953 39062 ft 534 kts 80°
2026-05-05 17:50 48.31588 -47.65981 39063 ft 534 kts 80°
2026-05-05 17:50 48.32943 -47.55007 39067 ft 534 kts 81°
2026-05-05 17:51 48.34283 -47.44072 39071 ft 534 kts 81°
2026-05-05 17:51 48.35620 -47.33071 39072 ft 534 kts 81°
2026-05-05 17:52 48.36944 -47.22079 39072 ft 534 kts 81°
2026-05-05 17:52 48.38252 -47.11135 39074 ft 534 kts 81°
2026-05-05 17:53 48.39556 -47.00124 39076 ft 534 kts 81°
2026-05-05 17:53 48.40848 -46.89131 39084 ft 534 kts 81°
2026-05-05 17:54 48.42130 -46.78118 39084 ft 534 kts 81°
2026-05-05 17:54 48.43402 -46.67101 39083 ft 533 kts 81°
2026-05-05 17:55 48.44661 -46.56094 39089 ft 533 kts 81°
2026-05-05 17:55 48.45902 -46.45149 39088 ft 533 kts 82°
2026-05-05 17:56 48.47141 -46.34134 39092 ft 533 kts 82°
2026-05-05 17:56 48.48368 -46.23119 39093 ft 532 kts 82°
2026-05-05 17:57 48.49584 -46.12101 39097 ft 532 kts 82°
2026-05-05 17:57 48.50788 -46.01093 39100 ft 532 kts 82°
2026-05-05 17:58 48.51983 -45.90073 39099 ft 532 kts 82°
2026-05-05 17:58 48.53158 -45.79125 39105 ft 532 kts 82°
2026-05-05 17:59 48.54331 -45.68095 39102 ft 532 kts 82°
2026-05-05 17:59 48.55496 -45.57043 39107 ft 532 kts 83°
2026-05-05 18:00 48.56641 -45.46074 39111 ft 532 kts 83°
2026-05-05 18:00 48.57785 -45.35002 39109 ft 533 kts 83°
2026-05-05 18:01 48.58918 -45.23932 39114 ft 533 kts 83°
2026-05-05 18:01 48.60034 -45.12921 39118 ft 534 kts 83°
2026-05-05 18:02 48.61149 -45.01814 39116 ft 534 kts 83°
2026-05-05 18:02 48.62254 -44.90686 39123 ft 535 kts 83°
2026-05-05 18:03 48.63350 -44.79542 39131 ft 536 kts 83°
2026-05-05 18:03 48.64437 -44.68379 39133 ft 537 kts 83°
2026-05-05 18:04 48.65514 -44.57198 39134 ft 537 kts 83°
2026-05-05 18:04 48.66575 -44.46071 39136 ft 538 kts 84°
2026-05-05 18:05 48.67631 -44.34875 39138 ft 538 kts 84°
2026-05-05 18:05 48.68677 -44.23669 39139 ft 538 kts 84°
2026-05-05 18:06 48.69714 -44.12436 39143 ft 537 kts 84°
2026-05-05 18:06 48.70737 -44.01228 39151 ft 537 kts 84°
2026-05-05 18:07 48.71750 -43.90006 39148 ft 537 kts 84°
2026-05-05 18:07 48.72744 -43.78875 39145 ft 536 kts 84°
2026-05-05 18:08 48.73734 -43.67656 39157 ft 536 kts 84°
2026-05-05 18:08 48.74712 -43.56452 39157 ft 536 kts 84°
2026-05-05 18:09 48.75678 -43.45256 39162 ft 535 kts 85°
2026-05-05 18:09 48.76627 -43.34131 39169 ft 535 kts 85°
2026-05-05 18:10 48.77570 -43.22943 39175 ft 534 kts 85°
2026-05-05 18:10 48.78501 -43.11762 39176 ft 534 kts 85°
2026-05-05 18:11 48.79422 -43.00560 39183 ft 534 kts 85°
2026-05-05 18:11 48.80325 -42.89459 39185 ft 534 kts 85°
2026-05-05 18:12 48.81223 -42.78273 39190 ft 533 kts 85°
2026-05-05 18:12 48.82109 -42.67095 39191 ft 533 kts 85°
2026-05-05 18:13 48.82986 -42.55892 39199 ft 533 kts 85°
2026-05-05 18:13 48.83846 -42.44770 39200 ft 534 kts 86°
2026-05-05 18:14 48.84702 -42.33552 39203 ft 534 kts 86°
2026-05-05 18:14 48.85546 -42.22349 39203 ft 534 kts 86°
2026-05-05 18:15 48.86381 -42.11119 39206 ft 534 kts 86°
2026-05-05 18:15 48.87198 -41.99969 39208 ft 534 kts 86°
2026-05-05 18:16 48.88011 -41.88736 39211 ft 534 kts 86°
2026-05-05 18:16 48.88811 -41.77519 39217 ft 534 kts 86°
2026-05-05 18:17 48.89601 -41.66294 39217 ft 534 kts 86°
2026-05-05 18:17 48.90250 -41.56953 39216 ft 534 kts 86°
2026-05-05 18:18 48.91021 -41.45706 39222 ft 534 kts 86°
2026-05-05 18:18 48.91779 -41.34477 39219 ft 534 kts 86°
2026-05-05 18:19 48.92527 -41.23243 39219 ft 533 kts 87°
2026-05-05 18:19 48.93263 -41.12011 39221 ft 533 kts 87°
2026-05-05 18:20 48.93984 -41.00843 39224 ft 533 kts 87°
2026-05-05 18:20 48.94699 -40.89605 39223 ft 533 kts 87°
2026-05-05 18:21 48.95402 -40.78384 39225 ft 533 kts 87°
2026-05-05 18:21 48.96090 -40.67215 39225 ft 533 kts 87°
2026-05-05 18:22 48.96771 -40.55980 39225 ft 533 kts 88°
2026-05-05 18:22 48.97442 -40.44728 39226 ft 533 kts 88°
2026-05-05 18:23 48.98102 -40.33480 39227 ft 533 kts 88°
2026-05-05 18:23 48.98748 -40.22278 39232 ft 533 kts 88°
2026-05-05 18:24 48.99387 -40.11025 39230 ft 534 kts 88°
2026-05-05 18:24 49.00076 -39.99744 39236 ft 535 kts 85°
2026-05-05 18:25 49.01526 -39.88602 39232 ft 537 kts 79°
2026-05-05 18:25 49.03185 -39.77583 39234 ft 537 kts 79°
2026-05-05 18:26 49.04835 -39.66455 39233 ft 538 kts 79°
2026-05-05 18:26 49.06438 -39.55281 39230 ft 538 kts 80°
2026-05-05 18:27 49.07999 -39.44194 39229 ft 538 kts 80°
2026-05-05 18:27 49.09558 -39.33031 39233 ft 538 kts 80°
2026-05-05 18:28 49.11882 -39.16270 39229 ft 538 kts 80°
2026-05-05 18:28 49.13419 -39.05090 39233 ft 538 kts 80°
2026-05-05 18:29 49.14937 -38.93965 39231 ft 538 kts 80°
2026-05-05 18:29 49.16460 -38.82714 39229 ft 537 kts 80°
2026-05-05 18:30 49.17955 -38.71587 39228 ft 537 kts 80°
2026-05-05 18:30 49.19447 -38.60388 39231 ft 537 kts 81°
2026-05-05 18:31 49.20929 -38.49181 39232 ft 537 kts 81°
2026-05-05 18:31 49.22400 -38.37964 39231 ft 537 kts 81°
2026-05-05 18:32 49.23851 -38.26819 39231 ft 537 kts 81°
2026-05-05 18:32 49.25301 -38.15585 39228 ft 537 kts 81°
2026-05-05 18:33 49.26740 -38.04346 39232 ft 537 kts 81°
2026-05-05 18:33 49.28170 -37.93088 39226 ft 538 kts 81°
2026-05-05 18:34 49.29587 -37.81839 39225 ft 538 kts 81°
2026-05-05 18:34 49.30985 -37.70642 39224 ft 538 kts 81°
2026-05-05 18:35 49.32382 -37.59371 39225 ft 538 kts 81°
2026-05-05 18:35 49.33767 -37.48091 39223 ft 538 kts 81°
2026-05-05 18:36 49.35140 -37.36818 39224 ft 538 kts 81°
2026-05-05 18:36 49.36502 -37.25541 39225 ft 538 kts 81°
2026-05-05 18:37 49.37853 -37.14258 39227 ft 537 kts 81°
2026-05-05 18:37 49.39194 -37.02964 39223 ft 537 kts 81°
2026-05-05 18:38 49.40514 -36.91737 39227 ft 537 kts 81°
2026-05-05 18:38 49.41833 -36.80429 39220 ft 536 kts 82°
2026-05-05 18:39 49.43137 -36.69142 39225 ft 536 kts 82°
2026-05-05 18:39 49.44430 -36.57854 39222 ft 536 kts 82°
2026-05-05 18:40 49.45701 -36.46658 39227 ft 535 kts 82°
2026-05-05 18:40 49.46969 -36.35381 39223 ft 535 kts 82°
2026-05-05 18:41 49.48226 -36.24108 39218 ft 534 kts 82°
2026-05-05 18:41 49.49472 -36.12823 39217 ft 534 kts 82°
2026-05-05 18:42 49.50704 -36.01556 39211 ft 533 kts 82°
2026-05-05 18:42 49.51924 -35.90307 39209 ft 533 kts 82°
2026-05-05 18:43 49.53124 -35.79129 39207 ft 532 kts 82°
2026-05-05 18:43 49.54320 -35.67873 39208 ft 532 kts 82°
2026-05-05 18:44 49.55505 -35.56625 39204 ft 532 kts 82°
2026-05-05 18:44 49.56681 -35.45352 39203 ft 532 kts 82°
2026-05-05 18:45 49.57836 -35.34164 39202 ft 531 kts 83°
2026-05-05 18:45 49.58988 -35.22900 39200 ft 531 kts 83°
2026-05-05 18:46 49.60128 -35.11636 39196 ft 531 kts 83°
2026-05-05 18:46 49.61251 -35.00432 39194 ft 531 kts 83°
2026-05-05 18:47 49.62369 -34.89163 39197 ft 531 kts 83°
2026-05-05 18:47 49.63474 -34.77908 39195 ft 530 kts 83°
2026-05-05 18:48 49.64568 -34.66652 39192 ft 530 kts 83°
2026-05-05 18:48 49.65651 -34.55385 39191 ft 530 kts 83°
2026-05-05 18:49 49.66722 -34.44138 39184 ft 530 kts 83°
2026-05-05 18:49 49.67775 -34.32945 39185 ft 529 kts 83°
2026-05-05 18:50 49.68825 -34.21682 39186 ft 529 kts 83°
2026-05-05 18:50 49.69862 -34.10425 39184 ft 529 kts 83°
2026-05-05 18:51 49.70888 -33.99162 39183 ft 529 kts 83°
2026-05-05 18:51 49.71903 -33.87897 39181 ft 529 kts 83°
2026-05-05 18:52 49.72906 -33.76642 39183 ft 529 kts 83°
2026-05-05 18:52 49.73892 -33.65450 39182 ft 528 kts 83°
2026-05-05 18:53 49.74874 -33.54182 39182 ft 528 kts 83°
2026-05-05 18:53 49.75847 -33.42880 39174 ft 528 kts 83°
2026-05-05 18:54 49.76800 -33.31676 39194 ft 528 kts 83°
2026-05-05 18:54 49.77748 -33.20408 39175 ft 528 kts 83°
2026-05-05 18:55 49.78684 -33.09140 39184 ft 527 kts 83°
2026-05-05 18:55 49.79603 -32.97940 39180 ft 527 kts 83°
2026-05-05 18:56 49.80517 -32.86672 39192 ft 527 kts 83°
2026-05-05 18:56 49.81419 -32.75407 39182 ft 527 kts 83°
2026-05-05 18:57 49.82312 -32.64129 39185 ft 527 kts 83°
2026-05-05 18:57 49.83187 -32.52921 39195 ft 527 kts 83°
2026-05-05 18:58 49.84058 -32.41624 39194 ft 527 kts 83°
2026-05-05 18:58 49.84916 -32.30345 39201 ft 527 kts 83°
2026-05-05 18:59 49.85758 -32.19147 39205 ft 526 kts 83°
2026-05-05 18:59 49.86594 -32.07869 39207 ft 526 kts 83°
2026-05-05 19:00 49.87418 -31.96597 39205 ft 526 kts 83°
2026-05-05 19:00 49.88230 -31.85340 39212 ft 525 kts 83°
2026-05-05 19:01 49.89031 -31.74083 39218 ft 525 kts 83°
2026-05-05 19:01 49.89688 -31.64730 39222 ft 524 kts 83°
2026-05-05 19:02 49.90468 -31.53478 39216 ft 524 kts 83°
2026-05-05 19:02 49.91232 -31.42292 39230 ft 523 kts 83°
2026-05-05 19:03 49.91987 -31.31079 39238 ft 522 kts 83°
2026-05-05 19:03 49.92733 -31.19849 39235 ft 522 kts 83°
2026-05-05 19:04 49.93461 -31.08711 39235 ft 522 kts 83°
2026-05-05 19:04 49.94183 -30.97499 39242 ft 522 kts 84°
2026-05-05 19:05 49.94895 -30.86273 39250 ft 522 kts 84°
2026-05-05 19:05 49.95593 -30.75095 39252 ft 522 kts 84°
2026-05-05 19:06 49.96284 -30.63859 39253 ft 522 kts 84°
2026-05-05 19:06 49.96964 -30.52621 39257 ft 523 kts 84°
2026-05-05 19:07 49.97633 -30.41366 39255 ft 523 kts 84°
2026-05-05 19:07 49.98293 -30.30097 39259 ft 524 kts 84°
2026-05-05 19:08 49.98942 -30.18818 39267 ft 524 kts 84°
2026-05-05 19:08 49.99579 -30.07584 39264 ft 524 kts 84°
2026-05-05 19:09 50.00437 -29.96355 39268 ft 522 kts 77°
2026-05-05 19:09 50.02021 -29.85320 39272 ft 522 kts 75°
2026-05-05 19:10 50.03676 -29.74301 39271 ft 522 kts 75°
2026-05-05 19:10 50.05285 -29.63300 39274 ft 521 kts 75°
2026-05-05 19:11 50.06852 -29.52286 39276 ft 521 kts 75°
2026-05-05 19:11 50.08386 -29.41351 39278 ft 519 kts 75°
2026-05-05 19:12 50.09916 -29.30372 39280 ft 518 kts 75°
2026-05-05 19:12 50.11433 -29.19418 39281 ft 516 kts 75°
2026-05-05 19:13 50.12942 -29.08461 39281 ft 514 kts 75°
2026-05-05 19:13 50.14431 -28.97558 39289 ft 513 kts 75°
2026-05-05 19:14 50.15896 -28.86756 39288 ft 511 kts 75°
2026-05-05 19:14 50.17357 -28.75902 39286 ft 510 kts 75°
2026-05-05 19:15 50.18802 -28.65080 39289 ft 509 kts 75°
2026-05-05 19:15 50.20235 -28.54268 39290 ft 508 kts 76°
2026-05-05 19:16 50.21655 -28.43477 39295 ft 507 kts 76°
2026-05-05 19:16 50.23057 -28.32739 39290 ft 506 kts 76°
2026-05-05 19:17 50.24453 -28.21963 39294 ft 506 kts 76°
2026-05-05 19:17 50.25840 -28.11171 39302 ft 505 kts 76°
2026-05-05 19:18 50.27205 -28.00464 39303 ft 505 kts 76°
2026-05-05 19:18 50.28570 -27.89686 39305 ft 505 kts 76°
2026-05-05 19:19 50.29923 -27.78908 39299 ft 504 kts 76°
2026-05-05 19:19 50.31264 -27.68140 39305 ft 504 kts 76°
2026-05-05 19:20 50.32596 -27.57362 39299 ft 503 kts 76°
2026-05-05 19:20 50.33907 -27.46661 39303 ft 503 kts 76°
2026-05-05 19:21 50.35215 -27.35909 39293 ft 503 kts 76°
2026-05-05 19:21 50.36513 -27.25146 39298 ft 502 kts 76°
2026-05-05 19:22 50.37798 -27.14398 39305 ft 502 kts 76°
2026-05-05 19:22 50.39073 -27.03650 39302 ft 502 kts 76°
2026-05-05 19:23 50.40338 -26.92896 39303 ft 501 kts 76°
2026-05-05 19:23 50.41593 -26.82145 39301 ft 501 kts 76°
2026-05-05 19:24 50.42837 -26.71387 39304 ft 501 kts 76°
2026-05-05 19:24 50.44071 -26.60625 39305 ft 501 kts 76°
2026-05-05 19:25 50.45290 -26.49914 39299 ft 501 kts 76°
2026-05-05 19:25 50.46506 -26.39120 39300 ft 502 kts 76°
2026-05-05 19:26 50.47715 -26.28304 39299 ft 502 kts 76°
2026-05-05 19:26 50.48905 -26.17566 39298 ft 502 kts 76°
2026-05-05 19:27 50.50093 -26.06741 39298 ft 502 kts 76°
2026-05-05 19:27 50.51273 -25.95892 39299 ft 503 kts 77°
2026-05-05 19:28 50.52442 -25.85056 39299 ft 503 kts 77°
2026-05-05 19:28 50.53593 -25.74281 39298 ft 503 kts 77°
2026-05-05 19:29 50.54742 -25.63425 39296 ft 503 kts 77°
2026-05-05 19:29 50.55883 -25.52551 39296 ft 503 kts 77°
2026-05-05 19:30 50.57013 -25.41672 39296 ft 503 kts 77°
2026-05-05 19:30 50.58132 -25.30801 39296 ft 503 kts 77°
2026-05-05 19:31 50.59234 -25.19991 39289 ft 502 kts 77°
2026-05-05 19:31 50.60331 -25.09126 39289 ft 501 kts 77°
2026-05-05 19:32 50.61416 -24.98276 39288 ft 501 kts 77°
2026-05-05 19:32 50.62489 -24.87436 39285 ft 500 kts 77°
2026-05-05 19:33 50.63551 -24.76614 39283 ft 500 kts 77°
2026-05-05 19:33 50.64594 -24.65862 39284 ft 499 kts 77°
2026-05-05 19:34 50.65635 -24.55033 39286 ft 499 kts 77°
2026-05-05 19:35 50.67177 -24.38792 39284 ft 499 kts 78°
2026-05-05 19:35 50.68191 -24.27971 39284 ft 499 kts 78°
2026-05-05 19:36 50.69190 -24.17199 39284 ft 499 kts 78°
2026-05-05 19:36 50.70186 -24.06341 39285 ft 499 kts 78°
2026-05-05 19:37 50.71172 -23.95486 39292 ft 499 kts 78°
2026-05-05 19:37 50.72147 -23.84636 39289 ft 499 kts 78°
2026-05-05 19:38 50.73107 -23.73833 39288 ft 499 kts 78°
2026-05-05 19:38 50.74063 -23.62964 39290 ft 500 kts 78°
2026-05-05 19:39 50.75008 -23.52089 39289 ft 500 kts 79°
2026-05-05 19:39 50.75944 -23.41202 39293 ft 500 kts 79°
2026-05-05 19:40 50.76870 -23.30310 39289 ft 500 kts 79°
2026-05-05 19:40 50.77787 -23.19406 39288 ft 500 kts 79°
2026-05-05 19:41 50.78687 -23.08571 39291 ft 500 kts 79°
2026-05-05 19:41 50.79583 -22.97660 39288 ft 500 kts 79°
2026-05-05 19:42 50.80469 -22.86748 39288 ft 500 kts 79°
2026-05-05 19:42 50.81339 -22.75900 39295 ft 500 kts 79°
2026-05-05 19:43 50.82204 -22.64977 39287 ft 500 kts 79°
2026-05-05 19:43 50.82916 -22.55900 39289 ft 500 kts 80°
2026-05-05 19:44 50.83900 -22.43187 39283 ft 500 kts 80°
2026-05-05 19:44 50.84595 -22.34093 39290 ft 500 kts 80°
2026-05-05 19:45 50.85422 -22.23153 39285 ft 500 kts 80°
2026-05-05 19:45 50.86239 -22.12198 39280 ft 501 kts 80°
2026-05-05 19:46 50.87046 -22.01241 39282 ft 501 kts 80°
2026-05-05 19:46 50.87843 -21.90270 39283 ft 501 kts 81°
2026-05-05 19:47 50.88629 -21.79314 39275 ft 501 kts 81°
2026-05-05 19:47 50.89399 -21.68423 39279 ft 501 kts 81°
2026-05-05 19:48 50.90165 -21.57454 39291 ft 501 kts 81°
2026-05-05 19:48 50.90920 -21.46482 39277 ft 501 kts 81°
2026-05-05 19:49 50.91666 -21.35494 39277 ft 501 kts 81°
2026-05-05 19:49 50.92401 -21.24520 39276 ft 501 kts 81°
2026-05-05 19:50 50.93126 -21.13521 39276 ft 501 kts 81°
2026-05-05 19:50 50.93837 -21.02586 39273 ft 501 kts 81°
2026-05-05 19:51 50.94542 -20.91583 39273 ft 501 kts 82°
2026-05-05 19:51 50.95236 -20.80586 39271 ft 501 kts 82°
2026-05-05 19:52 50.95921 -20.69564 39271 ft 501 kts 82°
2026-05-05 19:52 50.96590 -20.58620 39270 ft 501 kts 82°
2026-05-05 19:53 50.97254 -20.47590 39266 ft 501 kts 82°
2026-05-05 19:53 50.97908 -20.36563 39268 ft 502 kts 82°
2026-05-05 19:54 50.98551 -20.25540 39262 ft 502 kts 82°
2026-05-05 19:54 50.99184 -20.14497 39264 ft 501 kts 82°
2026-05-05 19:55 50.99804 -20.03533 39265 ft 501 kts 82°
2026-05-05 19:55 51.00235 -19.92464 39262 ft 502 kts 85°
2026-05-05 19:56 51.00435 -19.81385 39261 ft 502 kts 86°
2026-05-05 19:56 51.00608 -19.70280 39264 ft 502 kts 86°
2026-05-05 19:57 51.00795 -19.59192 39261 ft 502 kts 86°
2026-05-05 19:57 51.00987 -19.48098 39261 ft 502 kts 86°
2026-05-05 19:58 51.01171 -19.37077 39257 ft 502 kts 86°
2026-05-05 19:58 51.01344 -19.25989 39255 ft 502 kts 86°
2026-05-05 19:59 51.01506 -19.14865 39255 ft 502 kts 86°
2026-05-05 19:59 51.01657 -19.03760 39254 ft 502 kts 87°
2026-05-05 20:00 51.01797 -18.92676 39250 ft 502 kts 87°
2026-05-05 20:00 51.01927 -18.81580 39249 ft 502 kts 87°
2026-05-05 20:01 51.02046 -18.70563 39248 ft 502 kts 87°
2026-05-05 20:01 51.02155 -18.59474 39244 ft 502 kts 87°
2026-05-05 20:02 51.02253 -18.48375 39239 ft 501 kts 87°
2026-05-05 20:02 51.02341 -18.37293 39245 ft 501 kts 88°
2026-05-05 20:03 51.02418 -18.26281 39251 ft 501 kts 88°
2026-05-05 20:03 51.02485 -18.15177 39238 ft 501 kts 88°
2026-05-05 20:04 51.02541 -18.04081 39241 ft 502 kts 88°
2026-05-05 20:04 51.02587 -17.93060 39242 ft 501 kts 88°
2026-05-05 20:05 51.02622 -17.81959 39238 ft 501 kts 88°
2026-05-05 20:05 51.02647 -17.70880 39235 ft 501 kts 88°
2026-05-05 20:06 51.02662 -17.59861 39232 ft 501 kts 88°
2026-05-05 20:06 51.02666 -17.48775 39228 ft 501 kts 88°
2026-05-05 20:07 51.02659 -17.37704 39226 ft 501 kts 89°
2026-05-05 20:07 51.02642 -17.26626 39226 ft 501 kts 89°
2026-05-05 20:08 51.02615 -17.15623 39224 ft 500 kts 89°
2026-05-05 20:08 51.02578 -17.04559 39225 ft 500 kts 89°
2026-05-05 20:09 51.02530 -16.93505 39222 ft 500 kts 89°
2026-05-05 20:09 51.02471 -16.82432 39218 ft 500 kts 89°
2026-05-05 20:10 51.02402 -16.71372 39213 ft 500 kts 89°
2026-05-05 20:10 51.02323 -16.60326 39211 ft 500 kts 89°
2026-05-05 20:11 51.02233 -16.49312 39209 ft 500 kts 89°
2026-05-05 20:11 51.02133 -16.38257 39208 ft 501 kts 89°
2026-05-05 20:12 51.02022 -16.27190 39207 ft 501 kts 90°
2026-05-05 20:12 51.01902 -16.16191 39202 ft 501 kts 90°
2026-05-05 20:13 51.01769 -16.05062 39202 ft 501 kts 90°
2026-05-05 20:13 51.01628 -15.94060 39199 ft 501 kts 90°
2026-05-05 20:14 51.01476 -15.83009 39198 ft 501 kts 90°
2026-05-05 20:14 51.01313 -15.71944 39196 ft 501 kts 90°
2026-05-05 20:15 51.01139 -15.60869 39193 ft 500 kts 90°
2026-05-05 20:15 51.00957 -15.49869 39192 ft 500 kts 90°
2026-05-05 20:16 51.00763 -15.38832 39189 ft 500 kts 90°
2026-05-05 20:16 51.00559 -15.27808 39182 ft 499 kts 90°
2026-05-05 20:17 51.00345 -15.16792 39182 ft 499 kts 90°
2026-05-05 20:17 51.00122 -15.05778 39184 ft 499 kts 91°
2026-05-05 20:18 50.99937 -14.94812 39179 ft 498 kts 89°
2026-05-05 20:18 50.99989 -14.83816 39179 ft 498 kts 88°
2026-05-05 20:19 51.00071 -14.72831 39177 ft 498 kts 88°
2026-05-05 20:19 51.00104 -14.61825 39172 ft 498 kts 89°
2026-05-05 20:20 51.00108 -14.50805 39170 ft 498 kts 89°
2026-05-05 20:20 51.00101 -14.39802 39161 ft 498 kts 89°
2026-05-05 20:21 51.00086 -14.28811 39174 ft 498 kts 89°
2026-05-05 20:21 51.00063 -14.17868 39173 ft 498 kts 89°
2026-05-05 20:22 51.00007 -14.06851 39169 ft 498 kts 92°
2026-05-05 20:22 50.99031 -13.95975 39173 ft 499 kts 103°
2026-05-05 20:23 50.96959 -13.85546 39174 ft 499 kts 109°
2026-05-05 20:23 50.94615 -13.75159 39170 ft 499 kts 109°
2026-05-05 20:24 50.92279 -13.64782 39160 ft 499 kts 109°
2026-05-05 20:24 50.89986 -13.54486 39147 ft 499 kts 109°
2026-05-05 20:25 50.87680 -13.44108 39151 ft 498 kts 109°
2026-05-05 20:25 50.85369 -13.33750 39165 ft 498 kts 109°
2026-05-05 20:26 50.83441 -13.25158 39150 ft 498 kts 109°
2026-05-05 20:26 50.81112 -13.14831 39148 ft 498 kts 109°
2026-05-05 20:27 50.78779 -13.04539 39158 ft 498 kts 109°
2026-05-05 20:27 50.76435 -12.94246 39161 ft 497 kts 109°
2026-05-05 20:28 50.74084 -12.83976 39152 ft 497 kts 109°
2026-05-05 20:28 50.71740 -12.73783 39148 ft 497 kts 109°
2026-05-05 20:29 50.69376 -12.63549 39154 ft 496 kts 110°
2026-05-05 20:29 50.67001 -12.53323 39154 ft 496 kts 110°
2026-05-05 20:30 50.64618 -12.43107 39154 ft 496 kts 110°
2026-05-05 20:30 50.62226 -12.32899 39145 ft 496 kts 110°
2026-05-05 20:31 50.59844 -12.22788 39138 ft 496 kts 110°
2026-05-05 20:31 50.57437 -12.12615 39129 ft 496 kts 110°
2026-05-05 20:32 50.55019 -12.02444 39130 ft 496 kts 110°
2026-05-05 20:32 50.52595 -11.92293 39145 ft 496 kts 110°
2026-05-05 20:33 50.50175 -11.82208 39142 ft 496 kts 110°
2026-05-05 20:33 50.47731 -11.72070 39124 ft 496 kts 110°
2026-05-05 20:34 50.45281 -11.61953 39131 ft 496 kts 110°
2026-05-05 20:34 50.42819 -11.51837 39123 ft 496 kts 110°
2026-05-05 20:35 50.40349 -11.41731 39121 ft 496 kts 110°
2026-05-05 20:35 50.37888 -11.31705 39132 ft 496 kts 110°
2026-05-05 20:36 50.35399 -11.21616 39132 ft 495 kts 111°
2026-05-05 20:36 50.32908 -11.11564 39122 ft 495 kts 111°
2026-05-05 20:37 50.30406 -11.01509 39118 ft 495 kts 111°
2026-05-05 20:37 50.27918 -10.91559 39122 ft 494 kts 111°
2026-05-05 20:38 50.25401 -10.81538 39111 ft 494 kts 111°
2026-05-05 20:38 50.22879 -10.71541 39109 ft 494 kts 111°
2026-05-05 20:39 50.20351 -10.61563 39106 ft 494 kts 111°
2026-05-05 20:39 50.17830 -10.51657 39105 ft 493 kts 111°
2026-05-05 20:40 50.15287 -10.41709 39107 ft 493 kts 111°
2026-05-05 20:40 50.12732 -10.31759 39116 ft 493 kts 111°
2026-05-05 20:41 50.10173 -10.21840 39104 ft 493 kts 111°
2026-05-05 20:41 50.07603 -10.11917 39107 ft 493 kts 112°
2026-05-05 20:42 50.05045 -10.02083 39103 ft 493 kts 112°
2026-05-05 20:42 50.02461 -9.92194 39098 ft 493 kts 112°
2026-05-05 20:43 49.99863 -9.82294 39095 ft 494 kts 112°
2026-05-05 20:43 49.97261 -9.72420 39101 ft 494 kts 112°
2026-05-05 20:44 49.94651 -9.62558 39094 ft 494 kts 112°
2026-05-05 20:44 49.92029 -9.52694 39092 ft 494 kts 112°
2026-05-05 20:45 49.88083 -9.37928 39096 ft 494 kts 112°
2026-05-05 20:45 49.85444 -9.28105 39089 ft 494 kts 112°
2026-05-05 20:46 49.82813 -9.18355 39090 ft 493 kts 112°
2026-05-05 20:46 49.80157 -9.08552 39099 ft 493 kts 112°
2026-05-05 20:47 49.77495 -8.98767 39094 ft 493 kts 112°
2026-05-05 20:47 49.74828 -8.89004 39084 ft 493 kts 112°
2026-05-05 20:48 49.72151 -8.79245 39082 ft 492 kts 112°
2026-05-05 20:48 49.69466 -8.69501 39081 ft 492 kts 112°
2026-05-05 20:49 49.66781 -8.59793 39081 ft 491 kts 112°
2026-05-05 20:49 49.64105 -8.50157 39085 ft 491 kts 113°
2026-05-05 20:50 49.61390 -8.40423 39080 ft 490 kts 113°
2026-05-05 20:50 49.58706 -8.30836 39078 ft 490 kts 113°
2026-05-05 20:51 49.55997 -8.21202 39078 ft 490 kts 113°
2026-05-05 20:51 49.53277 -8.11561 39076 ft 489 kts 113°
2026-05-05 20:52 49.50554 -8.01945 39079 ft 489 kts 112°
2026-05-05 20:52 49.48298 -7.92146 39076 ft 488 kts 107°
2026-05-05 20:53 49.46291 -7.82161 39074 ft 488 kts 106°
2026-05-05 20:53 49.44270 -7.72175 39074 ft 489 kts 107°
2026-05-05 20:54 49.42216 -7.62220 39072 ft 489 kts 107°
2026-05-05 20:54 49.40152 -7.52326 39064 ft 489 kts 107°
2026-05-05 20:55 49.38064 -7.42375 39064 ft 489 kts 107°
2026-05-05 20:55 49.35970 -7.32428 39065 ft 490 kts 107°
2026-05-05 20:56 49.33867 -7.22491 39069 ft 490 kts 107°
2026-05-05 20:56 49.31750 -7.12530 39067 ft 490 kts 107°
2026-05-05 20:57 49.29629 -7.02604 39059 ft 490 kts 107°
2026-05-05 20:57 49.27514 -6.92750 39054 ft 490 kts 107°
2026-05-05 20:58 49.25372 -6.82819 39060 ft 490 kts 107°
2026-05-05 20:58 49.23218 -6.72883 39056 ft 490 kts 108°
2026-05-05 20:59 49.21075 -6.63039 39054 ft 491 kts 108°
2026-05-05 20:59 49.18913 -6.53146 39052 ft 491 kts 108°
2026-05-05 21:00 49.16384 -6.43446 39054 ft 492 kts 116°
2026-05-05 21:00 49.12834 -6.34504 39053 ft 492 kts 123°
2026-05-05 21:01 49.09062 -6.25771 39052 ft 493 kts 123°
2026-05-05 21:01 49.05298 -6.17017 39045 ft 494 kts 122°
2026-05-05 21:02 49.01549 -6.08232 39041 ft 494 kts 122°
2026-05-05 21:02 48.97807 -5.99463 39049 ft 494 kts 122°
2026-05-05 21:03 48.94082 -5.90762 39041 ft 493 kts 122°
2026-05-05 21:03 48.90332 -5.82037 39035 ft 492 kts 123°
2026-05-05 21:04 48.86577 -5.73330 39030 ft 492 kts 123°
2026-05-05 21:04 48.82821 -5.64650 39031 ft 491 kts 123°
2026-05-05 21:05 48.79063 -5.55991 39028 ft 491 kts 123°
2026-05-05 21:05 48.75318 -5.47391 39027 ft 491 kts 123°
2026-05-05 21:06 48.71546 -5.38757 39021 ft 491 kts 123°
2026-05-05 21:06 48.67768 -5.30136 39022 ft 491 kts 123°
2026-05-05 21:07 48.63983 -5.21528 39020 ft 491 kts 123°
2026-05-05 21:07 48.60195 -5.12939 39018 ft 491 kts 123°
2026-05-05 21:08 48.57044 -5.05813 39016 ft 491 kts 123°
2026-05-05 21:08 48.53244 -4.97247 39017 ft 490 kts 123°
2026-05-05 21:09 48.49467 -4.88759 39008 ft 490 kts 123°
2026-05-05 21:09 48.45677 -4.80262 39020 ft 490 kts 123°
2026-05-05 21:10 48.41966 -4.71657 39018 ft 490 kts 121°
2026-05-05 21:10 48.38428 -4.62892 39019 ft 490 kts 121°
2026-05-05 21:11 48.34922 -4.54200 39020 ft 489 kts 121°
2026-05-05 21:11 48.31358 -4.45486 39020 ft 489 kts 121°
2026-05-05 21:12 48.27771 -4.36796 39022 ft 489 kts 122°
2026-05-05 21:12 48.24175 -4.28119 39020 ft 489 kts 122°
2026-05-05 21:13 48.20576 -4.19460 39017 ft 489 kts 122°
2026-05-05 21:13 48.16974 -4.10816 38997 ft 489 kts 122°
2026-05-05 21:14 48.13391 -4.02245 38995 ft 488 kts 122°
2026-05-05 21:14 48.09779 -3.93631 38996 ft 488 kts 122°
2026-05-05 21:15 48.06163 -3.85037 38993 ft 488 kts 122°
2026-05-05 21:15 48.02546 -3.76467 38988 ft 487 kts 122°
2026-05-05 21:16 47.98923 -3.67910 38977 ft 487 kts 122°
2026-05-05 21:16 47.95294 -3.59367 38907 ft 488 kts 122°
2026-05-05 21:17 47.93470 -3.55082 38046 ft 498 kts 122°
2026-05-05 21:17 47.91613 -3.50729 37292 ft 494 kts 122°
2026-05-05 21:17 47.89775 -3.46426 36494 ft 491 kts 122°
2026-05-05 21:17 47.87947 -3.42153 35689 ft 488 kts 122°
2026-05-05 21:18 47.86120 -3.37889 34793 ft 488 kts 122°
2026-05-05 21:18 47.84294 -3.33632 33858 ft 487 kts 121°
2026-05-05 21:18 47.82475 -3.29399 33006 ft 482 kts 121°
2026-05-05 21:18 47.80679 -3.25228 32304 ft 474 kts 121°
2026-05-05 21:19 47.78918 -3.21145 31640 ft 466 kts 121°
2026-05-05 21:19 47.77179 -3.17119 30979 ft 459 kts 121°
2026-05-05 21:19 47.75461 -3.13147 30340 ft 452 kts 121°
2026-05-05 21:19 47.73773 -3.09251 29668 ft 446 kts 121°
2026-05-05 21:20 47.72104 -3.05400 28980 ft 440 kts 121°
2026-05-05 21:20 47.70449 -3.01590 28349 ft 434 kts 121°
2026-05-05 21:20 47.68824 -2.97852 27732 ft 428 kts 121°
2026-05-05 21:20 47.67219 -2.94166 27137 ft 423 kts 120°
2026-05-05 21:21 47.65647 -2.90561 26544 ft 419 kts 120°
2026-05-05 21:21 47.64070 -2.86948 25965 ft 415 kts 120°
2026-05-05 21:21 47.62506 -2.83370 25390 ft 411 kts 120°
2026-05-05 21:21 47.60953 -2.79822 24828 ft 408 kts 120°
2026-05-05 21:22 47.59415 -2.76312 24274 ft 405 kts 120°
2026-05-05 21:22 47.57883 -2.72819 23737 ft 402 kts 120°
2026-05-05 21:22 47.56361 -2.69356 23132 ft 400 kts 120°
2026-05-05 21:22 47.54847 -2.65912 22540 ft 397 kts 120°
2026-05-05 21:23 47.53341 -2.62494 21992 ft 394 kts 120°
2026-05-05 21:23 47.51868 -2.59154 21476 ft 390 kts 120°
2026-05-05 21:23 47.50390 -2.55806 20956 ft 387 kts 120°
2026-05-05 21:23 47.48921 -2.52482 20424 ft 385 kts 120°
2026-05-05 21:24 47.47461 -2.49182 19918 ft 382 kts 120°
2026-05-05 21:24 47.46009 -2.45903 19408 ft 380 kts 120°
2026-05-05 21:24 47.44562 -2.42639 18909 ft 379 kts 120°
2026-05-05 21:24 47.43117 -2.39383 18398 ft 377 kts 121°
2026-05-05 21:25 47.41674 -2.36138 17857 ft 376 kts 121°
2026-05-05 21:25 47.40241 -2.32917 17296 ft 375 kts 121°
2026-05-05 21:25 47.38950 -2.29648 16801 ft 371 kts 116°
2026-05-05 21:25 47.37778 -2.26256 16295 ft 369 kts 115°
2026-05-05 21:26 47.36614 -2.22891 15799 ft 367 kts 116°
2026-05-05 21:26 47.35447 -2.19547 15303 ft 360 kts 113°
2026-05-05 21:26 47.34861 -2.16034 14797 ft 353 kts 88°
2026-05-05 21:26 47.35306 -2.12532 14355 ft 347 kts 66°
2026-05-05 21:27 47.36517 -2.09485 13917 ft 343 kts 49°
2026-05-05 21:27 47.38261 -2.07149 13403 ft 335 kts 37°
2026-05-05 21:27 47.40111 -2.05064 12927 ft 335 kts 37°
2026-05-05 21:27 47.41905 -2.02861 12456 ft 335 kts 40°
2026-05-05 21:28 47.43568 -2.00510 11987 ft 335 kts 44°
2026-05-05 21:28 47.45153 -1.97986 11523 ft 335 kts 47°
2026-05-05 21:28 47.46649 -1.95357 11059 ft 334 kts 50°
2026-05-05 21:28 47.48004 -1.92576 10602 ft 329 kts 59°
2026-05-05 21:29 47.48656 -1.89398 10447 ft 322 kts 86°
2026-05-05 21:29 47.48234 -1.86206 10317 ft 317 kts 115°
2026-05-05 21:29 47.46820 -1.83777 10162 ft 311 kts 144°
2026-05-05 21:29 47.45011 -1.82217 10065 ft 299 kts 150°
2026-05-05 21:30 47.43201 -1.80760 9920 ft 291 kts 151°
2026-05-05 21:30 47.41426 -1.79413 9751 ft 283 kts 153°
2026-05-05 21:30 47.39669 -1.78155 9592 ft 278 kts 154°
2026-05-05 21:30 47.37936 -1.76927 9425 ft 273 kts 154°
2026-05-05 21:31 47.36223 -1.75709 9281 ft 275 kts 154°
2026-05-05 21:31 47.34484 -1.74469 9137 ft 278 kts 154°
2026-05-05 21:31 47.32758 -1.73236 8984 ft 280 kts 154°
2026-05-05 21:31 47.31002 -1.71978 8830 ft 281 kts 154°
2026-05-05 21:32 47.29243 -1.70717 8676 ft 281 kts 154°
2026-05-05 21:32 47.27481 -1.69454 8519 ft 282 kts 154°
2026-05-05 21:32 47.25710 -1.68184 8352 ft 282 kts 154°
2026-05-05 21:32 47.23954 -1.66925 8198 ft 280 kts 154°
2026-05-05 21:33 47.22209 -1.65676 8045 ft 278 kts 154°
2026-05-05 21:33 47.20474 -1.64436 7893 ft 276 kts 154°
2026-05-05 21:33 47.18752 -1.63201 7742 ft 272 kts 155°
2026-05-05 21:33 47.16951 -1.62566 7568 ft 267 kts 184°
2026-05-05 21:34 47.15204 -1.63379 7457 ft 267 kts 214°
2026-05-05 21:34 47.13869 -1.65248 7320 ft 266 kts 232°
2026-05-05 21:34 47.12706 -1.67362 7180 ft 271 kts 232°
2026-05-05 21:34 47.11514 -1.69521 7029 ft 272 kts 232°
2026-05-05 21:35 47.10320 -1.71681 6783 ft 274 kts 232°
2026-05-05 21:35 47.09121 -1.73854 6442 ft 272 kts 232°
2026-05-05 21:35 47.07937 -1.75993 6078 ft 268 kts 232°
2026-05-05 21:35 47.06763 -1.78114 5745 ft 267 kts 232°
2026-05-05 21:36 47.05597 -1.80216 5390 ft 264 kts 232°
2026-05-05 21:36 47.04462 -1.82255 5209 ft 253 kts 232°
2026-05-05 21:36 47.03349 -1.84254 4840 ft 252 kts 232°
2026-05-05 21:36 47.02247 -1.86230 4511 ft 247 kts 232°
2026-05-05 21:37 47.00975 -1.87791 4208 ft 237 kts 199°
2026-05-05 21:37 46.99412 -1.87838 4064 ft 225 kts 161°
2026-05-05 21:37 46.98051 -1.86751 3890 ft 220 kts 141°
2026-05-05 21:37 46.96900 -1.85282 3722 ft 223 kts 129°
2026-05-05 21:38 46.95968 -1.83485 3453 ft 218 kts 120°
2026-05-05 21:38 46.95215 -1.81596 3184 ft 212 kts 115°
2026-05-05 21:38 46.94547 -1.79781 3055 ft 196 kts 108°
2026-05-05 21:38 46.94503 -1.77883 3007 ft 186 kts 66°
2026-05-05 21:39 46.95243 -1.76395 3003 ft 186 kts 34°
2026-05-05 21:39 46.96359 -1.75494 3010 ft 183 kts 28°
2026-05-05 21:39 46.97458 -1.74638 3010 ft 175 kts 27°
2026-05-05 21:39 46.98532 -1.73817 3003 ft 173 kts 27°
2026-05-05 21:40 46.99597 -1.73009 2990 ft 172 kts 27°
2026-05-05 21:40 47.00658 -1.72207 2997 ft 171 kts 27°
2026-05-05 21:40 47.01729 -1.71396 2851 ft 176 kts 27°
2026-05-05 21:40 47.02808 -1.70577 2623 ft 173 kts 26°
2026-05-05 21:41 47.03865 -1.69776 2392 ft 169 kts 27°
2026-05-05 21:41 47.04898 -1.68992 2156 ft 165 kts 26°
2026-05-05 21:41 47.05910 -1.68224 1926 ft 163 kts 26°
2026-05-05 21:41 47.06912 -1.67463 1732 ft 163 kts 26°
2026-05-05 21:42 47.07906 -1.66708 1488 ft 158 kts 26°
2026-05-05 21:42 47.08863 -1.65982 1299 ft 153 kts 26°
2026-05-05 21:42 47.09780 -1.65283 1066 ft 143 kts 26°
2026-05-05 21:42 47.10661 -1.64614 891 ft 146 kts 26°
2026-05-05 21:43 47.11571 -1.63921 678 ft 144 kts 26°
2026-05-05 21:43 47.12424 -1.63272 480 ft 134 kts 26°
2026-05-05 21:43 47.13239 -1.62651 305 ft 129 kts 27°
2026-05-05 21:43 47.14034 -1.62046 152 ft 127 kts 26°
2026-05-05 21:44 47.14801 -1.61470 97 ft 111 kts 26°
2026-05-05 21:44 47.15286 -1.61099 95 ft 57 kts 27°
2026-05-05 21:44 47.15560 -1.60896 94 ft 29 kts 26°
2026-05-05 21:44 47.15674 -1.60796 94 ft 12 kts 56°
2026-05-05 21:45 47.15653 -1.60677 94 ft 13 kts 122°
2026-05-05 21:45 47.15617 -1.60600 97 ft 7 kts 125°
2026-05-05 21:45 47.15589 -1.60541 98 ft 7 kts 125°
2026-05-05 21:45 47.15560 -1.60483 98 ft 7 kts 126°
2026-05-05 21:46 47.15532 -1.60424 99 ft 8 kts 121°
2026-05-05 21:46 47.15536 -1.60312 99 ft 12 kts 53°
2026-05-05 21:46 47.15589 -1.60215 96 ft 11 kts 61°
2026-05-05 21:46 47.15627 -1.60131 93 ft 6 kts 47°
2026-05-05 21:47 47.15638 -1.60114 93 ft 0 kts 47°